STARLINK-1172, 45074

Orbit data source: Space-Track

STARLINK-1172, 45074 is a payload satellite owned by SpaceX/Seattle (US) in LEO that was launched on Wed, 29 Jan 2020 UTC via an FALCON 9 launch vehicle from the Air Force Eastern Test Range (AFETR). Payload-class satellites include a variety of spacecraft equipped with specific instruments for various scientific and technological missions. These include communications satellites like Starlink; space stations such as the ISS; scientific satellites like the Hubble; Earth observation satellites from companies like Planet Labs, Umbra, and HawkEye 360; GPS; miniature CubeSats for education and research; and military/defense satellites.

Loading next visibility...
Identifier
45074, 2020-006AG
Orbit
LEO
Country
Flag of USUS
Related business
Manufacturer
SpaceX/Seattle
Mission
Operational Commercial Communications
Bus & Motor
STARLINK, Unknown motor
Mass
260 kg wet, ~248 kg dry
Launch date (UTC)
2020-01-29 (6 years ago)
Launch vehicle
FALCON 9
Launch site
Air Force Eastern Test Range (AFETR)
Object type
Payload
Rocket body
Debris
Shape & HBR
Box + 1 Pan, 10.1 m
Radar Cross Section
13.562 m², Large (>1 m²)

Expand to show TLE details & history
Last TLE update: 10 hours ago

TLE from 10 hours ago
0 STARLINK-1172
1 45074U 20006AG  25297.92601110  .00000446  00000-0  48862-4 0  9999
2 45074  53.0545 156.0886 0001520  89.3223 270.7940 15.06393133316275
Epoch: 2025-10-24T22:13Z
TLE epoch observation values (Epoch: 2025-10-24T22:13:27.359Z)
Latitude
-0.00001°
Longitude
149.16069°
Altitude
548.097 km
Speed
7.589 km/s
True Right ascension
10h 24m 21s
True Declination
0° 00' 00"
Sunlit
Object was in daylight at epoch
Visualization orbit readout
Latitude
Unknown
Longitude
Unknown
Altitude
Unknown
Speed
Unknown
Apparent Right ascension
Unknown
Apparent Declination
Unknown
Sunlit
N/A
Visualization observer readout
Local Sidereal Time
02:59:14
Azimuth
Unknown
Elevation
Unknown
Doppler factor
Unknown
Orbital elements
Apogee altitude
548.556 km
Perigee altitude
546.451 km
Semi-major axis
6,925.64 km
Eccentricity
0.00015
Inclination
53.0545°
RAAN
156.0886°
Arg. of periapsis
89.3223°
True anomaly
270.77658°
Mean anomaly
270.794°
Eccentric anomaly
270.78529°
Mean motion
3.76577 °/min
Orbital period
95.6 mins
BSTAR
0.000048862
Loading maneuver chart data...
Computing Atmospheric mass density...

Documentation

Showing up to 5 results
|